Flag for Switzerland Weather past 2 weeks in Carouge, Geneva, Switzerland

Now
56 °F

Cool.


Feels Like: 56 °F
Forecast: 52 / 79 °F
Wind: 3 mph from North

Location: Geneve-Cointrin

Current Time: Jul 30, 2015 at 5:09:28 AM

Latest Report: Jul 30, 2015 at 4:00 AM


Visibility: N/A

Pressure: 30.01 "Hg

Humidity: 74%

Dew point: 47 °F

Location of CarougeLocation

Historic Weather in Carouge — Graph

°F

Carouge temperature yesterday

Maximum temperature yesterday: 71 °F (at 4:00 PM)
Minimum temperature yesterday: 63 °F (at 6:00 AM)
Average temperature yesterday: 66 °F

Past Weeks' High & Low Weather Summary

 TemperatureHumidityPressure
High100 °F (Jul 16, 5:00 PM)94% (Jul 23, 3:00 AM)30.16 "Hg (Jul 23, 3:00 AM)
Low53 °F (Jul 26, 6:00 AM)14% (Jul 16, 5:00 PM)29.66 "Hg (Jul 24, 6:00 PM)
Average75 °F55%29.94 "Hg
* Reported Jul 15 3:00 AM — Jul 30 3:00 AM, Carouge, Weather by CustomWeather, © 2015

Note: Actual official high and low records may vary slightly from our data, if they occured in-between our weather recording intervals... More about our weather records

Advertising

Carouge weather history for previous 24 hours

 ConditionsComfort  
Time TempWeatherWind HumidityBarometerVisibility
3:00 AM
Thu, Jul 30
58 °FCool.2 mph69%30.00 "HgN/A
2:00 AM60 °FPassing clouds.2 mph66%30.00 "Hg25 mi
1:00 AM62 °FRefreshingly cool.2 mph59%29.99 "HgN/A
12:00 AM63 °FMild.2 mph51%29.97 "HgN/A
11:00 PM
Wed, Jul 29
63 °FPassing clouds.3 mph59%29.96 "Hg25 mi
10:00 PM65 °FMild.3 mph59%29.95 "HgN/A
9:00 PM65 °FMild.2 mph66%29.94 "HgN/A
8:00 PM67 °FOvercast.8 mph61%29.92 "Hg22 mi
7:00 PM68 °FMild.9 mph69%29.91 "HgN/A
6:00 PM69 °FMild.5 mph65%29.90 "HgN/A
5:00 PM71 °FOvercast.14 mph66%29.90 "Hg16 mi
4:00 PM71 °FMild.15 mph64%29.88 "HgN/A
3:00 PM69 °FMild.14 mph74%29.88 "HgN/A
2:00 PM69 °FLight rain. Overcast.15 mph74%29.87 "Hg22 mi
1:00 PM69 °FMild.12 mph75%29.87 "HgN/A
12:00 PM65 °FMild.12 mph84%29.89 "HgN/A
11:00 AM67 °FOvercast.14 mph60%29.88 "Hg22 mi
10:00 AM66 °FMild.12 mph58%29.87 "HgN/A
9:00 AM65 °FMild.5 mph59%29.87 "HgN/A
8:00 AM66 °FLight rain. Overcast.5 mph54%29.85 "Hg28 mi
7:00 AM65 °FMild.2 mph60%29.86 "HgN/A
6:00 AM63 °FMild.1 mph67%29.87 "HgN/A
5:00 AM64 °FOvercast.3 mph61%29.87 "Hg28 mi
Weather by CustomWeather, © 2015

See weather overviewHow to use our weather pages